カタログに戻る

DELTA 1 DEB

運用中LEO
NORAD 10252·DEBRIS·🇺🇸 United States

打ち上げ Jul 14, 1977 から Cape Canaveral Space Force Station

Loading…

次のパス (今後24時間)

TLE

最新Source: Space-Track

元期: Sep 14, 2026, 14:06 UTC

1 10252U 77065CD  26257.58814377  .00000926  00000-0  37468-3 0  9998
2 10252  28.8420  80.8070 0753922  57.2127 309.8803 13.27944332351739

AllMySatでDELTA 1 DEBをリアルタイム追跡

Download on the App Store